This is the latest recevied weather packets stored in our database for station/object KC7YCE. If no packets are shown the sender has not sent any weather packets the latest 1 day(s).
| Time | Temp. | Humidity | Pressure | Rain* | Wind** | Luminosity | Snow |
|---|---|---|---|---|---|---|---|
| 1777990220 | 1.11° C | 93% | 1016.1 hPa | 0 mm | 0 m/s | - | - |
| 1777988990 | 1.67° C | 92% | 1016.1 hPa | 0 mm | 0 m/s | - | - |
| 1777988360 | 2.22° C | 93% | 1016 hPa | 0 mm | 0 m/s | - | - |
| 1777987760 | 2.22° C | 94% | 1015.9 hPa | 0 mm | 0 m/s | - | - |
| 1777987160 | 2.22° C | 94% | 1015.8 hPa | 0 mm | 0 m/s | - | - |
| 1777985960 | 2.22° C | 93% | 1015.7 hPa | 0 mm | 0 m/s | - | - |
| 1777984730 | 1.67° C | 93% | 1015.7 hPa | 0 mm | 0 m/s | - | - |
| 1777984100 | 1.67° C | 93% | 1015.7 hPa | 0 mm | 0 m/s | - | - |
| 1777983500 | 1.67° C | 93% | 1015.7 hPa | 0 mm | 0 m/s | - | - |
| 1777982900 | 1.67° C | 93% | 1015.7 hPa | 0 mm | 0 m/s | - | - |
| 1777982270 | 1.67° C | 92% | 1015.7 hPa | 0 mm | 0 m/s | - | - |
| 1777981040 | 1.67° C | 92% | 1015.6 hPa | 0 mm | 0 m/s | - | - |
| 1777979780 | 2.22° C | 92% | 1015.6 hPa | 0 mm | 0 m/s | - | - |
| 1777979150 | 2.22° C | 92% | 1015.7 hPa | 0 mm | 0.45 m/s, 165° | - | - |
| 1777978550 | 2.22° C | 92% | 1015.8 hPa | 0 mm | 0 m/s | - | - |
| 1777977920 | 2.22° C | 91% | 1015.8 hPa | 0 mm | 0 m/s | - | - |
| 1777976691 | 2.22° C | 89% | 1015.9 hPa | 0 mm | 0 m/s | - | - |
| 1777976060 | 2.22° C | 88% | 1015.9 hPa | 0 mm | 0 m/s | - | - |
| 1777974800 | 3.33° C | 85% | 1016.1 hPa | 0 mm | 0 m/s | - | - |
| 1777974170 | 3.33° C | 85% | 1016.1 hPa | 0 mm | 0 m/s | - | - |
| 1777973540 | 3.33° C | 83% | 1016.3 hPa | 0 mm | 0 m/s | - | - |
| 1777972341 | 3.33° C | 82% | 1016.2 hPa | 0 mm | 0 m/s | - | - |
| 1777971740 | 2.78° C | 78% | 1016.2 hPa | 0 mm | 0 m/s | - | - |
| 1777971110 | 2.78° C | 77% | 1016.1 hPa | 0 mm | 0 m/s | - | - |
| 1777969853 | 2.78° C | 77% | 1016 hPa | 0 mm | 0 m/s | - | - |
* Rain latest hour (hover to see other rain measurements)
** Current wind speed in m/s (hover to see current wind gust speed)